Tracking 25934 objects as of 11-Aug-2022
HD Live streaming from Space Station
objects crossing your sky now

CZ-3B R/B

Track CZ-3B R/B now!


NORAD ID: 41022
Int'l Code: 2015-063B
Perigee: 223.2 km
Apogee: 28,910.6 km
Inclination: 27.0 °
Period: 502.5 minutes
Semi major axis: 20937 km
RCS: Unknown
Launch date: November 3, 2015
Source: People's Republic of China (PRC)
Launch site: Xichang Space Center, China (XSC)

Note: This is a ROCKET BODY
aabbcc
Your satellite tracking list
Your tracking list is empty




NASA's NSSDC Master Catalog

Two Line Element Set (TLE):
1 41022U 15063B   22222.41994674  .00013512  00000-0  12149-2 0  9999
2 41022  27.0150 326.8064 6850586 109.2589 332.3163  2.86552047 61701
Source of the keplerian elements: AFSPC